Regional Weather Roundup
Issued by NWS

Home | Current Version | Previous Version | Graphics & Text | Print | Product List | Glossary On
Versions: 1 2 3 4 5 6 7 8 9 10 11 12 13 14 15 16 17 18 19 20 21 22 23 24 25 26 27 28 29 30 31 32 33 34 35 36 37 38 39 40 41 42 43 44 45 46 47 48 49 50
723
ASUS45 KPSR 261810
RWRAZ

ARIZONA HOURLY REGIONAL WEATHER ROUNDUP
NATIONAL WEATHER SERVICE PHOENIX AZ
1100 AM MST TUE JUL 26 2016

NOTE: FAIR INDICATES FEW OR NO CLOUDS BELOW 12,000 FEET WITH NO
SIGNIFICANT WEATHER AND/OR OBSTRUCTIONS TO VISIBILITY.

AZZ001>003-036-261900-
NORTHWEST ARIZONA

CITY           SKY/WX    TMP DP  RH WIND       PRES   REMARKS
BULLHEAD CITY  SUNNY    104  59  22 SW6       29.83F HX 104
KINGMAN        SUNNY     99  44  15 E7G17     30.06F
6HR MIN TEMP:  76; 6HR MAX TEMP: 100;

$$

AZZ004>008-015-016-018-261900-
NORTH CENTRAL ARIZONA

CITY           SKY/WX    TMP DP  RH WIND       PRES   REMARKS
GRAND CANYON   PTSUNNY   83  45  26 E9        30.34F
6HR MIN TEMP:  63; 6HR MAX TEMP:  84;

WILLIAMS       PTSUNNY   73  54  49 CALM      30.43R
PRESCOTT       MOSUNNY   88  55  32 N8        30.19F THUNDER
6HR MIN TEMP:  63; 6HR MAX TEMP:  88;

FLAGSTAFF      PTSUNNY   78  54  43 NE5       30.37S
6HR MIN TEMP:  54; 6HR MAX TEMP:  78; 6HR PCP: TRACE;

PAYSON         MOSUNNY   86  52  30 CALM      30.23S
PAGE           SUNNY     94  44  17 N6        30.13F
6HR MIN TEMP:  78; 6HR MAX TEMP:  94;

$$

AZZ009>014-017-261900-
NORTHEAST ARIZONA

CITY           SKY/WX    TMP DP  RH WIND       PRES   REMARKS
WINSLOW        SUNNY     89  50  26 CALM      30.19F
6HR MIN TEMP:  70; 6HR MAX TEMP:  90;

SAINT JOHNS    SUNNY     88  50  27 NW8G18    30.23F
6HR MIN TEMP:  67; 6HR MAX TEMP:  88;

WINDOW ROCK    PTSUNNY   80  48  32 CALM      30.34F
6HR MIN TEMP:  64; 6HR MAX TEMP:  82; 6HR PCP: TRACE;

SHOW LOW       SUNNY     81  46  30 SW3       30.31S
$$

AZZ023-261900-
GREATER PHOENIX AREA

CITY           SKY/WX    TMP DP  RH WIND       PRES   REMARKS
PHOENIX        MOSUNNY  102  56  21 CALM      29.86F HX 101
6HR MIN TEMP:  91; 6HR MAX TEMP: 102;

BUCKEYE        SUNNY    100  55  22 S5        29.89S
GLENDALE       MOSUNNY  104  57  21 SW5       29.88F HX 103
LUKE AFB       SUNNY    102  60  24 S7        29.86F HX 103
DEER VALLEY    MOSUNNY   99  55  23 CALM      29.89F
6HR MIN TEMP:  86; 6HR MAX TEMP: 102;

MESA-FALCON    MOSUNNY  N/A N/A N/A VRB7      29.87
MESA-GATEWAY   MOSUNNY   97  57  26 SW6       29.91S
CHANDLER       MOSUNNY  100  57  23 VRB5      29.89
$$

AZZ027-028-261900-
SOUTHWEST MARICOPA COUNTY AND PINAL COUNTY

CITY           SKY/WX    TMP DP  RH WIND       PRES   REMARKS
CASA GRANDE    SUNNY    100  57  23 W6        29.93F
6HR MIN TEMP:  82; 6HR MAX TEMP: 100;

GILA BEND      SUNNY    102  60  24 VRB6      29.86S HX 102
6HR MIN TEMP:  87; 6HR MAX TEMP: 103;

$$

AZZ503-504-507>509-261900-
SOUTHEAST ARIZONA

CITY           SKY/WX    TMP DP  RH WIND       PRES   REMARKS
TUCSON         MOSUNNY   96  62  32 NW8       30.01F
6HR MIN TEMP:  82; 6HR MAX TEMP:  96;

DAVIS-MONTHAN  MOSUNNY   94  60  32 N8        30.00F
6HR MIN TEMP:  80; 6HR MAX TEMP:  94;

RYAN FIELD     SUNNY     93  63  36 W5        30.01F
NOGALES        PTSUNNY   85  65  51 CALM      30.10F
6HR MIN TEMP:  72; 6HR MAX TEMP:  86;

SIERRA VISTA   PTSUNNY   87  58  38 NE8       30.17F
6HR MIN TEMP:  73; 6HR MAX TEMP:  87;

DOUGLAS        SUNNY     85  64  49 VRB7      30.12F
6HR MIN TEMP:  73; 6HR MAX TEMP:  85;

SAFFORD        SUNNY     94  56  27 SE8       30.04F
6HR MIN TEMP:  78; 6HR MAX TEMP:  94;

$$

AZZ020-021-025-026-031-261900-
SOUTHWEST ARIZONA

CITY           SKY/WX    TMP DP  RH WIND       PRES   REMARKS
YUMA           MOSUNNY   97  68  38 S15       29.84F HX 102
6HR MIN TEMP:  84; 6HR MAX TEMP:  97;

$$

CAZ031-033-041-043-047-048-061-261900-
SOUTHERN CALIFORNIA

CITY           SKY/WX    TMP DP  RH WIND       PRES   REMARKS
DOWNTOWN L.A.  SUNNY     82  64  54 CALM      29.89S
6HR MIN TEMP:  68; 6HR MAX TEMP:  83;

L.A. AIRPORT   MOSUNNY   74  65  73 W12       29.91S
6HR MIN TEMP:  67; 6HR MAX TEMP:  74;

SAN DIEGO      MOSUNNY   76  68  76 NW8       29.91S
6HR MIN TEMP:  67; 6HR MAX TEMP:  76;

BURBANK        SUNNY     89  56  32 SE6       29.90S
6HR MIN TEMP:  73; 6HR MAX TEMP:  89;

ONTARIO        MOSUNNY   91  52  26 SW8       29.91S
6HR MIN TEMP:  71; 6HR MAX TEMP:  91;

RIVERSIDE      SUNNY     92  53  26 W7        29.90F
6HR MIN TEMP:  73; 6HR MAX TEMP:  92;

PALM SPRINGS   MOSUNNY  104  52  17 SE9       29.84S HX 101
6HR MIN TEMP:  86; 6HR MAX TEMP: 104;

EL CENTRO NAS  MOSUNNY  103  58  22 SE7       29.82S HX 102
6HR MIN TEMP:  85; 6HR MAX TEMP: 103;

IMPERIAL       SUNNY    104  62  25 SE8       29.80S HX 106
6HR MIN TEMP:  88; 6HR MAX TEMP: 105;

BLYTHE         SUNNY    103  62  26 S10       29.82F HX 105
6HR MIN TEMP:  89; 6HR MAX TEMP: 103;

NEEDLES        SUNNY    109  58  18 VRB5      29.84F HX 109
6HR MIN TEMP:  92; 6HR MAX TEMP: 109;

$$

NVZ020-UTZ003-261900-
SOUTHERN NEVADA-UTAH

CITY           SKY/WX    TMP DP  RH WIND       PRES   REMARKS
LAS VEGAS      MOSUNNY  101  45  15 VRB6      29.91F
6HR MIN TEMP:  87; 6HR MAX TEMP: 101;

SALT LAKE CITY MOSUNNY   95  44  17 S9        30.05S
6HR MIN TEMP:  77; 6HR MAX TEMP:  95;

$$

NMZ009-TXZ055-261900-
NEW MEXICO-WEST TEXAS

CITY           SKY/WX    TMP DP  RH WIND       PRES   REMARKS
ALBUQUERQUE    MOSUNNY   82  56  40 NW7       30.24F
6HR MIN TEMP:  71; 6HR MAX TEMP:  82;

EL PASO        MOSUNNY   91  57  31 CALM      30.10F
6HR MIN TEMP:  75; 6HR MAX TEMP:  92;

$$


........................KEY........................
SKY/WX - SKY CONDITION/WEATHER
TMP    - TEMPERATURE IN FAHRENHEIT
DP     - DEW POINT IN FAHRENHEIT
RH     - RELATIVE HUMIDITY IN PERCENT
WIND   - DIRECTION AND SPEED IN MILES PER HOUR (MPH)
VRB    - VARIABLE WIND DIRECTION
PRES   - MEAN SEA LEVEL PRESSURE IN INCHES OF MERCURY
         F - FALLING PRESSURE   R - RISING PRESSURE
         S - STEADY PRESSURE
VSB    - VISIBILITY IN MILES
HX     - HEAT INDEX IN FAHRENHEIT
WCI    - WIND CHILL INDEX IN FAHRENHEIT
TC     - TEMPERATURE IN CELSIUS WHICH IS ALSO KNOWN AS
         TEMPERATURE IN CENTIGRADE
AFB    - AIR FORCE BASE
         LUKE AFB IS LUKE AIR FORCE BASE
         DAVIS-MONTHAN IS DAVIS-MONTHAN AIR FORCE BASE
NAS    - NAVAL AIR STATION
         EL CENTRO NAS IS EL CENTRO NAVAL AIR STATION
N/A    - NOT AVAILABLE





USA.gov is the U.S. government's official web portal to all federal, state and local government web resources and services.